Weather History for Ephrata, WA

Change the Weather History Date:

Monday, October 15, 2012

  Actual Average Record
Temperature  
Mean Temperature 61 °F 51 °F  
Max Temperature 71 °F 63 °F 80 °F (1963)
Min Temperature 51 °F 39 °F 29 °F (1992)
Degree Days  
Heating Degree Days 4 14  
Month to date heating degree days 141 163  
Since 1 July heating degree days 191 290  
Cooling Degree Days 0 0  
Month to date cooling degree days 0 0  
Year to date cooling degree days 837 769  
Growing Degree Days 11 (Base 50)    
Moisture  
Dew Point 52 °F    
Average Humidity 70    
Maximum Humidity 100    
Minimum Humidity 40    
Precipitation  
Precipitation 0.11 in 0.02 in 0.24 in (2006)
Month to date precipitation 0.15 0.20  
Year to date precipitation 4.99 5.22  
Sea Level Pressure  
Sea Level Pressure 29.74 in    
Wind  
Wind Speed 10 mph (South)    
Max Wind Speed 25 mph    
Max Gust Speed 31 mph    
Visibility 10 miles    
Events Rain    
T = Trace of Precipitation, MM = Missing Value Source: NWS Daily Summary

Daily Weather History Graph

Daily Weather History Graph

Search for Another Location

Airport:

Trip Planner

Search our weather history database for the weather conditions in past years. The results will help you decide how hot, cold, wet, or windy it might be!

Date:

Astronomy

Oct. 15, 2012 Rise Set
Actual Time 7:17 AM PDT 6:09 PM PDT
Civil Twilight 6:46 AM PDT 6:40 PM PDT
Nautical Twilight 6:10 AM PDT 7:15 PM PDT
Astronomical Twilight 5:35 AM PDT 7:50 PM PDT
Moon 7:38 AM PDT (10/15) 6:06 PM PDT (10/15)
Length of Visible Light 11h 53m
Length of Day
10h 51m
New Moon, 0% of the Moon is Illuminated
Oct 15
New Moon
Oct 21
First Quarter
Oct 29
Full
Nov 6
Last Quarter
Nov 13
New

Hourly Weather History & Observations

Time (PDT) Temp. Dew Point Humidity Pressure Visibility Wind Dir Wind Speed Gust Speed Precip Events Conditions
12:53 AM 57.0 °F 50.0 °F 77% 29.83 in 10.0 mi South 16.1 mph - N/A   Partly Cloudy
1:53 AM 55.9 °F 50.0 °F 80% 29.85 in 10.0 mi SW 12.7 mph - N/A   Overcast
2:53 AM 55.9 °F 50.0 °F 80% 29.82 in 10.0 mi SSW 11.5 mph - 0.00 in Rain Light Rain
3:53 AM 55.9 °F 51.1 °F 84% 29.82 in 10.0 mi NNW 3.5 mph - 0.00 in   Overcast
4:53 AM 55.9 °F 50.0 °F 80% 29.83 in 10.0 mi SSW 8.1 mph - N/A   Overcast
5:53 AM 55.0 °F 48.9 °F 80% 29.85 in 10.0 mi SW 4.6 mph - N/A   Partly Cloudy
6:53 AM 53.1 °F 48.0 °F 83% 29.86 in 10.0 mi SW 4.6 mph - N/A   Mostly Cloudy
7:53 AM 52.0 °F 46.9 °F 83% 29.86 in 10.0 mi North 4.6 mph - N/A   Clear
8:53 AM 57.0 °F 48.9 °F 74% 29.87 in 10.0 mi South 5.8 mph - N/A   Clear
9:53 AM 62.1 °F 48.0 °F 60% 29.87 in 10.0 mi SW 11.5 mph - N/A   Clear
10:53 AM 64.9 °F 48.9 °F 56% 29.86 in 10.0 mi SSW 10.4 mph - N/A   Clear
11:53 AM 69.1 °F 46.0 °F 44% 29.84 in 10.0 mi SW 10.4 mph - N/A   Clear
12:53 PM 70.0 °F 45.0 °F 41% 29.83 in 10.0 mi SSW 20.7 mph 27.6 mph N/A   Clear
1:53 PM 66.9 °F 46.9 °F 49% 29.80 in 10.0 mi South 17.3 mph - N/A   Clear
2:53 PM 68.0 °F 48.0 °F 49% 29.76 in 10.0 mi South 13.8 mph - N/A   Clear
3:53 PM 66.9 °F 48.0 °F 51% 29.75 in 10.0 mi South 13.8 mph - N/A   Scattered Clouds
4:53 PM 64.0 °F 48.9 °F 58% 29.71 in 10.0 mi South 15.0 mph - 0.00 in   Overcast
5:53 PM 59.0 °F 54.0 °F 83% 29.70 in 10.0 mi South 13.8 mph - 0.01 in Rain Light Rain
6:53 PM 57.0 °F 55.9 °F 96% 29.68 in 10.0 mi South 6.9 mph - 0.06 in Rain Light Rain
7:36 PM 57.2 °F 55.4 °F 94% 29.68 in 10.0 mi South 4.6 mph - 0.01 in Rain Light Rain
7:43 PM 57.2 °F 55.4 °F 94% 29.67 in 8.0 mi South 5.8 mph - 0.02 in Rain Rain
7:53 PM 57.9 °F 55.9 °F 93% 29.66 in 10.0 mi SSE 4.6 mph - 0.03 in Rain Light Rain
8:34 PM 57.2 °F 57.2 °F 100% 29.64 in 10.0 mi South 8.1 mph - 0.01 in   Overcast
8:53 PM 57.9 °F 57.0 °F 97% 29.62 in 10.0 mi South 8.1 mph - 0.01 in   Overcast
9:20 PM 57.2 °F 57.2 °F 100% 29.60 in 10.0 mi South 8.1 mph - 0.00 in   Overcast
9:53 PM 57.9 °F 57.0 °F 97% 29.58 in 10.0 mi South 6.9 mph - 0.00 in   Overcast
10:20 PM 57.2 °F 55.4 °F 94% 29.58 in 10.0 mi South 9.2 mph - N/A   Mostly Cloudy
10:37 PM 57.2 °F 55.4 °F 94% 29.56 in 10.0 mi South 9.2 mph - N/A   Mostly Cloudy
10:53 PM 57.0 °F 55.9 °F 96% 29.55 in 10.0 mi South 6.9 mph - N/A   Mostly Cloudy
11:53 PM 55.9 °F 55.0 °F 97% 29.52 in 8.0 mi SSE 9.2 mph - N/A   Mostly Cloudy